Simultaneous Nadir Overpasses (SNOs) Predictions

Prediction of SNOs between AQUA and METOP-C Satellite Orbit:

Table of predicted SNOs for the next 14.0 days since TLE Epoch: 4/19/2025
Index Date (AQUA) Time (AQUA) Lat,Lon (AQUA) SZA (AQUA ) Date (METOP-C) Time (METOP-C) Lat,Lon (METOP-C) SZA (METOP-C ) Distance(km) Time Diff (sec)
1 04/20/2025 19:03:33 -76.44, 76.05 115.43 04/20/2025 19:02:42 -76.47, 76.08 115.41 2.51 51
2 04/20/2025 19:52:53 76.48,-116.41 64.60 04/20/2025 19:53:21 76.51,-116.44 64.63 2.87 28
3 04/23/2025 07:52:08 -76.47,-116.11 116.26 04/23/2025 07:51:34 -76.48,-116.10 116.25 1.25 34
4 04/23/2025 08:41:28 76.51, 51.42 63.78 04/23/2025 08:42:13 76.52, 51.38 63.79 1.59 45
5 04/25/2025 20:40:42 -76.51, 51.68 117.04 04/25/2025 20:40:26 -76.48, 51.69 117.07 3.03 16
6 04/25/2025 21:30:02 76.55,-140.80 62.99 04/25/2025 21:31:05 76.52,-140.83 62.96 3.50 63
7 04/28/2025 08:39:52 76.31, 52.62 61.97 04/28/2025 08:38:42 76.22, 51.20 61.87 38.85 70
8 04/28/2025 09:29:14 -76.52,-140.43 117.84 04/28/2025 09:29:17 -76.52,-140.40 117.84 0.71 3
9 04/28/2025 10:18:41 76.90, 25.88 62.52 04/28/2025 10:19:48 76.92, 28.46 62.58 65.06 67
10 04/30/2025 21:28:25 76.48,-140.03 61.36 04/30/2025 21:27:27 76.48,-140.11 61.35 2.12 58
11 04/30/2025 22:17:44 -76.55, 27.41 118.59 04/30/2025 22:18:07 -76.55, 27.48 118.59 1.73 23



Historial Predications of SNOs between AQUA and METOP-C
